Location: St. Louis
(38.6270°N, 90.1994°W)
Time: 12:38:02
(UTC-06:00)

Vanguard 1 - Visible Passes

Search period start: 30 November 2021 00:00
Search period end: 10 December 2021 00:00
Orbit: 653 x 3830 km, 34.3° (Epoch: 29 November)

Date Brightness Start Highest point End Pass type
(mag) Time Alt. Az. Time Alt. Az. Time Alt. Az.
30 Nov 12.4 02:35:47 74° SSE 02:35:47 74° SSE 02:50:58 10° E visible
30 Nov 12.2 04:48:29 31° W 04:59:58 70° SSW 05:11:47 10° ESE visible
30 Nov 13.9 21:47:54 10° S 21:48:10 11° S 21:48:10 11° S visible
01 Dec 13.4 00:42:41 30° E 00:42:41 30° E 00:49:24 10° E visible
01 Dec 12.4 02:55:23 77° SSW 02:56:14 77° S 03:12:01 10° E visible
01 Dec 12.2 05:08:05 25° W 05:21:01 64° SSW 05:32:26 10° SE visible
01 Dec 13.9 22:07:17 10° SSW 22:49:35 - ENE 22:07:48 11° SSW visible
02 Dec 13.3 01:02:17 37° E 01:02:17 37° E 01:10:40 10° E visible
02 Dec 12.4 03:14:59 71° SW 03:17:43 77° S 03:33:01 10° ESE visible
02 Dec 12.3 05:27:40 20° W 05:41:55 56° SSW 05:52:57 10° SE visible
02 Dec 13.7 20:12:56 10° SSE 20:14:47 12° SSE 20:14:47 12° SSE visible
02 Dec 13.9 22:27:09 10° SSW 23:09:10 - ENE 22:27:29 11° SSW visible
03 Dec 13.1 01:21:52 44° E 01:21:52 44° E 01:31:53 10° E visible
03 Dec 12.4 03:34:33 62° WSW 03:39:08 75° S 03:53:58 10° ESE visible
03 Dec 12.4 05:47:15 15° W 06:02:38 47° SW 06:13:16 10° SE visible
03 Dec 13.6 20:30:33 10° S 20:34:30 17° SSE 20:34:30 17° SSE visible
03 Dec 14.0 23:28:46 10° E 23:28:46 10° E 23:28:54 10° E visible
04 Dec 12.9 01:41:27 53° ESE 01:41:27 53° ESE 01:53:05 10° E visible
04 Dec 12.4 03:54:09 53° WSW 04:00:26 71° SSW 04:14:49 10° ESE visible
04 Dec 12.6 06:06:51 11° W 06:23:09 39° SW 06:33:19 10° SSE visible
04 Dec 13.5 20:49:19 10° S 20:54:15 21° S 20:54:15 21° S visible
04 Dec 14.0 23:48:22 15° E 23:48:22 15° E 23:50:22 10° E visible
05 Dec 12.7 02:01:03 61° ESE 02:01:03 61° ESE 02:14:14 10° E visible
05 Dec 12.4 04:13:46 45° W 04:21:38 65° SSW 04:35:32 10° SE visible
05 Dec 12.8 06:28:40 10° W 06:43:28 30° SW 06:53:01 10° S visible
05 Dec 13.4 21:08:43 10° SSW 21:14:03 24° S 21:14:03 24° S visible
06 Dec 13.8 00:07:59 20° E 00:07:59 20° E 00:11:46 10° E visible
06 Dec 12.6 02:20:41 69° SE 02:20:41 69° SE 02:35:21 10° ESE visible
06 Dec 12.5 04:33:23 38° W 04:42:37 58° SSW 04:56:05 10° SE visible
06 Dec 13.5 19:15:15 10° SSE 19:21:09 15° SE 19:21:09 15° SE visible
06 Dec 13.4 21:28:36 10° SSW 21:33:52 25° SSW 21:33:52 25° SSW visible
07 Dec 13.6 00:27:37 25° E 00:27:37 25° E 00:33:08 10° E visible
07 Dec 12.5 02:40:19 74° SSE 02:40:19 74° SSE 02:56:23 10° ESE visible
07 Dec 12.6 04:53:01 31° W 05:03:26 50° SW 05:16:26 10° SE visible
07 Dec 13.3 19:32:44 10° S 19:40:59 22° SE 19:40:59 22° SE visible
07 Dec 13.4 21:48:47 10° SW 21:53:42 25° SSW 21:53:42 25° SSW visible
08 Dec 13.5 00:47:17 31° E 00:47:17 31° E 00:54:27 10° E visible
08 Dec 12.5 02:59:59 72° SSW 03:00:10 72° SSW 03:17:19 10° ESE visible
08 Dec 12.7 05:12:41 25° W 05:24:02 42° SW 05:36:30 10° SSE visible
08 Dec 13.1 19:51:29 10° S 20:00:50 28° SSE 20:00:50 28° SSE visible
08 Dec 13.5 22:09:16 10° SW 22:54:17 - E 22:13:33 23° SW visible
09 Dec 13.3 01:06:58 37° E 01:06:58 37° E 01:15:44 10° E visible
09 Dec 12.5 03:19:41 65° SW 03:21:27 67° SSW 03:38:05 10° SE visible
09 Dec 12.9 05:32:23 19° W 05:44:26 34° SW 05:56:13 10° SSE visible
09 Dec 12.9 20:10:54 10° SSW 20:20:41 35° SSE 20:20:41 35° SSE visible
09 Dec 13.6 22:29:58 10° WSW 23:13:59 - E 22:33:24 21° SW visible
